[[{"header":{"parameterUnit":"m.s-1","parameterCategory":1,"la1":30.2991,"la2":30.254,"lo1":-89.0895,"lo2":-89.0444,"dy":0.0017,"dx":0.0017,"nx":28,"ny":28,"refTime":"2025-06-03T03:00:00:Z","depth":0,"parameterNumber":2,"parameterNumberName":"U-component_of_WINDS"},"data":[0,0,0,0,0,0,0,0,0,0,0,0,0,0,0,0,0,0,0,0,0,0,0,0,0,0,0,0,0,0,0,0,0,0,0,0,0,0,0,0,0,0,0,0,0,0,0,0,0,0,0,0,0,0,0,0,0,0,-2.6148,-2.6148,0,-2.6212,-2.6213,-2.6214,-2.6166,-2.6164,-2.6162,-2.616,-2.6228,-2.6232,-2.6235,0,0,0,0,0,0,0,0,0,0,0,0,0,-2.5984,-2.5987,-2.6148,-2.6148,-2.6149,-2.6212,-2.6213,-2.6214,-2.6167,-2.6164,-2.6162,-2.6159,-2.6227,-2.6231,-2.6236,0,0,0,0,0,0,0,0,0,0,0,0,0,-2.6053,-2.5988,-2.6147,-2.6133,-2.6133,-2.6212,-2.6213,-2.6214,-2.6167,-2.6164,-2.6161,-2.6158,-2.6225,-2.6231,-2.6236,-2.6334,0,0,-2.6253,-2.6256,0,0,0,0,0,0,0,0,-2.6049,-2.6059,-2.6135,-2.6134,-2.6134,-2.6178,-2.618,-2.6254,-2.6168,-2.6154,-2.616,-2.6157,-2.6214,-2.622,-2.6239,-2.6337,-2.634,-2.6254,-2.6257,-2.626,-2.6261,0,0,0,0,0,0,0,-2.6044,-2.6056,-2.6173,-2.6136,-2.6135,-2.6124,-2.613,-2.6194,-2.6201,-2.6155,-2.6152,-2.616,-2.6213,-2.6234,-2.6241,-2.6341,-2.6254,-2.6259,-2.6262,-2.6264,-2.652,-2.6523,0,0,0,0,0,0,-2.604,-2.6052,-2.6171,-2.6175,-2.6083,-2.6129,-2.6136,-2.6167,-2.62,-2.6202,-2.6163,-2.6158,-2.6226,-2.6234,-2.6243,-2.6358,-2.626,-2.6265,-2.6268,-2.6517,-2.6521,-2.6525,0,0,0,0,0,0,-2.6037,-2.6051,-2.6169,-2.6113,-2.6127,-2.6135,-2.617,-2.617,-2.6191,-2.6206,-2.6207,-2.6183,-2.6224,-2.6235,-2.6311,-2.636,-2.6267,-2.6273,-2.6513,-2.6518,-2.6523,-2.6591,0,0,0,0,0,0,-2.6033,-2.6051,-2.6088,-2.6114,-2.613,-2.6236,-2.6173,-2.6173,-2.62,-2.6194,-2.6225,-2.6227,-2.6222,-2.6303,-2.6317,-2.6366,-2.6277,-2.6508,-2.6515,-2.6521,-2.6584,-2.6597,-2.6609,0,0,0,0,0,-2.6027,-2.6105,-2.609,-2.6104,-2.6176,-2.6239,-2.6248,-2.6241,-2.6205,-2.6242,-2.6251,-2.6226,-2.6352,-2.6311,-2.6326,-2.6378,-2.6505,-2.6513,-2.6521,-2.6578,-2.6595,-2.6609,0,0,0,0,0,0,-2.6085,-2.6108,-2.6092,-2.618,-2.6208,-2.6231,-2.6277,-2.6258,-2.6297,-2.629,-2.6279,-2.6287,-2.6367,-2.638,-2.6333,-2.6473,-2.6423,-2.6434,-2.6462,-2.6478,-2.649,-2.6485,-2.6282,0,0,0,0,0,-2.6108,-2.6156,-2.6174,-2.625,-2.6265,-2.6269,-2.6296,-2.6288,-2.6316,-2.6328,-2.6343,-2.6372,-2.6418,-2.6448,-2.6492,-2.6586,-2.6591,-2.6629,-2.6641,-2.6651,-2.6661,-2.6711,-2.6728,-2.655,-2.655,-2.655,0,0,-2.6156,-2.6174,-2.6206,-2.6262,-2.6283,-2.6333,-2.6279,-2.6335,-2.6372,-2.6336,-2.6409,-2.6421,-2.6452,-2.6538,-2.6576,-2.6551,-2.6711,-2.6661,-2.6669,-2.6673,-2.6721,-2.6737,-2.6752,-2.6555,-2.6554,-2.6553,0,0,-2.6269,-2.6288,-2.6353,-2.6375,-2.6406,-2.6408,-2.6424,-2.645,-2.6456,-2.6528,-2.6502,-2.6547,-2.6627,-2.665,-2.6672,-2.6793,-2.6771,-2.6808,-2.6873,-2.6922,-2.6936,-2.6948,-2.6991,-2.7006,-2.6817,-2.6818,-2.6818,0,-2.6325,-2.64,-2.639,-2.6447,-2.6473,-2.6442,-2.6507,-2.6529,-2.6573,-2.6592,-2.6563,-2.6662,-2.6681,-2.6771,-2.68,-2.682,-2.6837,-2.6804,-2.6934,-2.6947,-2.6958,-2.6999,-2.7015,-2.6822,-2.6821,-2.6821,-2.682,0,-2.6467,-2.6519,-2.6568,-2.661,-2.6641,-2.6703,-2.6702,-2.6735,-2.6724,-2.6729,-2.6803,-2.6825,-2.6871,-2.6892,-2.6882,-2.6981,-2.6964,-2.6935,-2.6885,-2.6979,-2.7017,-2.7033,-2.6828,-2.6826,-2.6825,-2.6824,0,0,-2.6619,-2.6654,-2.6672,-2.6691,-2.6723,-2.6763,-2.6823,-2.6868,-2.6896,-2.6928,-2.6978,-2.7045,-2.7018,-2.7044,-2.7036,-2.7079,-2.7173,-2.7045,-2.7045,-2.7068,-2.7282,-2.7304,-2.7322,-2.7159,-2.7162,-2.7164,-2.728,0,-2.6734,-2.6838,-2.683,-2.6928,-2.6976,-2.6946,-2.6999,-2.7024,-2.703,-2.7072,-2.7079,-2.7127,-2.7088,-2.7103,-2.7144,-2.7153,-2.7216,-2.7145,-2.7205,-2.7207,-2.7198,-2.7342,-2.7365,-2.7473,-2.7294,-2.7297,-2.7299,0,-2.6881,-2.6917,-2.702,-2.7043,-2.7063,-2.711,-2.715,-2.7191,-2.7218,-2.722,-2.7248,-2.7233,-2.7293,-2.7241,-2.7324,-2.7276,-2.73,-2.7308,-2.7312,-2.7317,-2.7259,-2.7351,-2.7508,-2.7524,-2.7322,-2.732,-2.7319,0,-2.6982,-2.7055,-2.7126,-2.7143,-2.7172,-2.7206,-2.722,-2.7245,-2.7272,-2.7307,-2.7325,-2.7367,-2.739,-2.7423,-2.742,-2.7382,-2.7505,-2.7452,-2.7508,-2.7508,-2.7535,-2.7533,-2.7697,-2.7551,-2.7551,-2.755,-2.755,0,-2.711,-2.7175,-2.7171,-2.7215,-2.7285,-2.7276,-2.7346,-2.7356,-2.7378,-2.7423,-2.7401,-2.7444,-2.7437,-2.748,-2.7478,-2.7547,-2.7557,-2.756,-2.7559,-2.7562,-2.7562,-2.7578,-2.757,-2.7554,-2.7554,-2.7553,-2.7552,0,-2.7235,-2.7235,-2.731,-2.7331,-2.7338,-2.7389,-2.7408,-2.7449,-2.7453,-2.751,-2.7523,-2.7529,-2.7579,-2.7579,-2.7635,-2.7634,-2.7718,-2.7708,-2.7708,-2.7706,-2.7762,-2.7757,-2.7942,-2.7966,-2.7804,-2.7806,-2.7807,0,-2.7317,-2.7365,-2.7391,-2.7419,-2.7435,-2.7481,-2.7509,-2.7501,-2.753,-2.7565,-2.7602,-2.7649,-2.7686,-2.7766,-2.7776,-2.7819,-2.781,-2.7872,-2.7817,-2.7818,-2.7811,-2.7808,-2.7813,-2.7883,-2.7885,-2.7887,-2.7888,0,-2.7463,-2.746,-2.75,-2.754,-2.7573,-2.7605,-2.7634,-2.7658,-2.7654,-2.7688,-2.7738,-2.7766,-2.7823,-2.787,-2.7912,-2.7926,-2.7907,-2.7905,-2.792,-2.7924,-2.7922,-2.7924,-2.7738,-2.7901,-2.79,-2.7899,-2.7898,-2.7897,-2.7568,-2.7609,-2.7634,-2.7679,-2.77,-2.7727,-2.7767,-2.7775,-2.7816,-2.7861,-2.7854,-2.791,-2.7935,-2.7989,-2.8007,-2.805,-2.8029,-2.805,-2.8056,-2.8062,-2.8067,-2.7915,-2.8058,-2.8057,-2.8057,-2.8057,-2.8056,0,-2.7713,-2.7726,-2.7768,-2.7809,-2.7844,-2.7821,-2.7852,-2.7883,-2.7932,-2.7958,-2.7994,-2.8051,-2.8096,-2.8109,-2.8153,-2.8185,-2.8177,-2.8197,-2.8194,-2.8198,-2.8084,-2.8067,-2.8202,-2.8202,-2.8202,-2.8202,-2.8202,-2.8202,-2.7792,-2.786,-2.786,-2.7939,-2.7952,-2.8006,-2.8025,-2.805,-2.807,-2.8134,-2.8171,-2.8179,-2.82,-2.8244,-2.8285,-2.8287,-2.8304,-2.8328,-2.8327,-2.8221,-2.8206,-2.8192,-2.8176,-2.8332,-2.8332,-2.8437,-2.8438,-2.8439]},{"header":{"parameterUnit":"m.s-1","parameterCategory":1,"la1":30.2991,"la2":30.254,"lo1":-89.0895,"lo2":-89.0444,"dy":0.0017,"dx":0.0017,"nx":28,"ny":28,"refTime":"2025-06-03T03:00:00:Z","depth":0,"parameterNumber":3,"parameterNumberName":"V-component_of_WINDS"},"data":[0,0,0,0,0,0,0,0,0,0,0,0,0,0,0,0,0,0,0,0,0,0,0,0,0,0,0,0,0,0,0,0,0,0,0,0,0,0,0,0,0,0,0,0,0,0,0,0,0,0,0,0,0,0,0,0,0,0,1.551,1.551,0,1.5491,1.5491,1.5491,1.5461,1.5461,1.546,1.546,1.544,1.544,1.544,0,0,0,0,0,0,0,0,0,0,0,0,0,1.552,1.552,1.551,1.551,1.551,1.5491,1.5491,1.5491,1.5461,1.5461,1.546,1.546,1.544,1.544,1.544,0,0,0,0,0,0,0,0,0,0,0,0,0,1.551,1.552,1.551,1.5493,1.5491,1.5491,1.5491,1.5491,1.5462,1.5461,1.546,1.5459,1.544,1.544,1.544,1.5455,0,0,1.544,1.544,0,0,0,0,0,0,0,0,1.5511,1.551,1.5496,1.5494,1.5492,1.5478,1.5487,1.5479,1.5462,1.5473,1.546,1.5459,1.5453,1.5452,1.545,1.5454,1.5453,1.544,1.544,1.544,1.5439,0,0,0,0,0,0,0,1.5512,1.5511,1.5503,1.5496,1.5493,1.5486,1.5484,1.5485,1.5468,1.5472,1.547,1.5468,1.5452,1.545,1.5449,1.5453,1.544,1.544,1.5439,1.5439,1.5467,1.5468,0,0,0,0,0,0,1.5515,1.5511,1.5503,1.5502,1.55,1.5486,1.5484,1.5483,1.5468,1.5464,1.5469,1.5467,1.5451,1.5449,1.5449,1.5464,1.544,1.5439,1.5439,1.5466,1.5467,1.5468,0,0,0,0,0,0,1.5515,1.5515,1.5504,1.5506,1.5504,1.5487,1.5487,1.5483,1.5481,1.5465,1.5462,1.547,1.545,1.5449,1.5453,1.5463,1.5439,1.5439,1.5465,1.5466,1.5467,1.5496,0,0,0,0,0,0,1.5516,1.5515,1.5521,1.5507,1.5504,1.551,1.5487,1.5484,1.5481,1.5479,1.5465,1.5463,1.5449,1.5454,1.5453,1.5462,1.5439,1.5464,1.5466,1.5467,1.5494,1.5498,1.5501,0,0,0,0,0,1.5516,1.553,1.5521,1.552,1.5511,1.551,1.5509,1.5493,1.5482,1.5488,1.5477,1.5463,1.5462,1.5454,1.5454,1.5463,1.5464,1.5465,1.5467,1.5492,1.5497,1.5501,0,0,0,0,0,0,1.5546,1.5528,1.5518,1.5527,1.5521,1.5505,1.5512,1.5499,1.5495,1.5493,1.5474,1.5471,1.5478,1.5471,1.5463,1.5476,1.5461,1.5462,1.548,1.5484,1.5488,1.5489,1.5439,0,0,0,0,0,1.5553,1.5554,1.5538,1.5548,1.5545,1.5529,1.5528,1.5517,1.5509,1.5506,1.5496,1.5488,1.5486,1.5485,1.5482,1.5493,1.5489,1.5499,1.5503,1.5506,1.5507,1.551,1.5514,1.5474,1.5474,1.5473,0,0,1.5569,1.5559,1.5561,1.5554,1.5547,1.5548,1.5527,1.5529,1.5529,1.5506,1.5509,1.5502,1.5492,1.5499,1.5502,1.5494,1.5518,1.5508,1.5511,1.551,1.5513,1.5517,1.552,1.5475,1.5474,1.5474,0,0,1.5597,1.5591,1.5597,1.5591,1.5581,1.557,1.5572,1.5559,1.5552,1.5556,1.5538,1.5538,1.5535,1.5528,1.5525,1.555,1.5536,1.555,1.5568,1.5572,1.5575,1.5578,1.5585,1.5588,1.5552,1.5552,1.5552,0,1.5618,1.5618,1.5602,1.5605,1.5602,1.5581,1.5587,1.5582,1.5572,1.557,1.5561,1.5556,1.5549,1.5553,1.5559,1.5558,1.5558,1.5551,1.5576,1.5579,1.5581,1.5588,1.5591,1.5553,1.5553,1.5553,1.5553,0,1.5643,1.5644,1.5651,1.5641,1.5639,1.5643,1.5627,1.5627,1.5616,1.5606,1.5608,1.5598,1.5593,1.5593,1.5583,1.5596,1.5591,1.558,1.5563,1.5587,1.5593,1.5595,1.5556,1.5555,1.5555,1.5554,0,0,1.5689,1.567,1.5673,1.5667,1.5655,1.5655,1.5658,1.5653,1.5652,1.5646,1.5647,1.5645,1.5634,1.563,1.5618,1.5622,1.564,1.5609,1.5609,1.5614,1.5652,1.566,1.5663,1.5632,1.5632,1.5632,1.5653,0,1.5714,1.5718,1.5703,1.5711,1.5711,1.5691,1.5694,1.5686,1.5677,1.5675,1.5664,1.5663,1.5649,1.5646,1.5649,1.5637,1.5647,1.5636,1.5631,1.5631,1.5633,1.5667,1.5675,1.5695,1.5655,1.5655,1.5656,0,1.5743,1.5738,1.5745,1.5731,1.5731,1.5733,1.5726,1.5725,1.5716,1.5708,1.5704,1.569,1.5691,1.5677,1.5678,1.567,1.5668,1.5662,1.5662,1.566,1.5644,1.5664,1.5701,1.5703,1.566,1.5659,1.5659,0,1.5773,1.5769,1.5772,1.5768,1.5753,1.5755,1.5748,1.5738,1.5735,1.5729,1.5727,1.5721,1.5718,1.5713,1.5698,1.569,1.57,1.5685,1.5693,1.5694,1.5695,1.5695,1.5731,1.5696,1.5696,1.5696,1.5696,0,1.5801,1.5807,1.5785,1.5787,1.5792,1.5775,1.578,1.5772,1.5763,1.5762,1.5746,1.5746,1.5727,1.5724,1.5712,1.5714,1.5713,1.5706,1.5703,1.5707,1.5707,1.5704,1.5701,1.5697,1.5697,1.5697,1.5697,0,1.5836,1.5822,1.5824,1.5809,1.5805,1.581,1.5796,1.5797,1.5787,1.5786,1.5785,1.5769,1.5765,1.575,1.5742,1.5734,1.5739,1.5733,1.5742,1.5739,1.5748,1.5747,1.5781,1.5784,1.575,1.575,1.575,0,1.5854,1.5857,1.5842,1.5841,1.5835,1.5833,1.583,1.5813,1.5811,1.58,1.5802,1.5796,1.5791,1.5785,1.5772,1.5766,1.5759,1.5772,1.5758,1.5762,1.5758,1.5757,1.5756,1.5774,1.5775,1.5775,1.5776,0,1.5887,1.588,1.5876,1.587,1.5866,1.5861,1.5854,1.5854,1.5835,1.5833,1.5828,1.5824,1.5816,1.5811,1.5802,1.5795,1.5782,1.578,1.5781,1.5785,1.5789,1.5785,1.5748,1.5779,1.5779,1.5778,1.5778,1.5778,1.5912,1.5914,1.5903,1.5899,1.5893,1.5887,1.5886,1.5876,1.5872,1.5864,1.5855,1.5851,1.5841,1.5828,1.5821,1.5818,1.5811,1.5813,1.5813,1.5814,1.5815,1.5791,1.5817,1.5816,1.5816,1.5816,1.5816,0,1.5943,1.5935,1.5932,1.5923,1.5919,1.5908,1.59,1.5897,1.5895,1.5886,1.5881,1.5876,1.587,1.5857,1.5849,1.5849,1.5843,1.5847,1.5847,1.5845,1.5823,1.5822,1.5853,1.5853,1.5853,1.5853,1.5853,1.5853,1.5958,1.596,1.5952,1.5949,1.5941,1.5938,1.5934,1.5928,1.5921,1.5915,1.591,1.5902,1.5891,1.5883,1.5877,1.5873,1.587,1.5877,1.5871,1.585,1.5847,1.5843,1.5842,1.5877,1.5877,1.5893,1.5893,1.5893]}]]